Orbital Elements at Epoch 2459200.5 (2020-Dec-17.0) TDB
Reference: JPL 18 (heliocentric ecliptic J2000)
Element | Value | Uncertainty (1-sigma) | Units |
e | .1776324729219772 | 4.2619e-08 | |
a | 3.134449794555169 | 2.843e-08 | au |
q | 2.577669726298551 | 1.3209e-07 | au |
i | 2.453420952116141 | 6.9142e-06 | deg |
node | 38.46819234419157 | 0.00011622 | deg |
peri | 244.4205734238743 | 0.00011817 | deg |
M | 98.41209149353078 | 2.2084e-05 | deg |
tp | 2458646.402277851887 (2019-Jun-11.90227785) | 0.00012124 | TDB |
period | 2026.937716148766 5.55 | 2.7577e-05 7.55e-08 | d yr |
n | .1776078254066974 | 2.4164e-09 | deg/d |
Q | 3.691229862811787 | 3.348e-08 | au |
|
| | Orbit Determination Parameters
Additional Information
|